weather.gov     
National Weather Service

Regional Weather Roundup
NWS Homepage
This page is being discontinued on March 12, 2014.
The same data is available at this site. Please update your bookmarks.
Thank you, and we apologize for the inconvenience.
Please send an email to SR-SRH.Webmaster@noaa.gov with any concerns.


Current Version
Previous Version:    01  02  03  04  05  06  07  08  09  10  11  12  13  14  15  16  17  18  19  20  21  22  23  24  25  26  27  28  29  30  
   31  32  33  34  35  36  37  38  39  40  41  42  43  44  45  46  47  48  49  50  51  52  53  54  55  56  57  58  59  60  
[Printable]
198
ASUS44 KFWD 232203
RWRTX
NORTH TEXAS HOURLY WEATHER ROUNDUP
NATIONAL WEATHER SERVICE FORT WORTH TX
500 PM CDT THU OCT 23 2014

NOTE: "FAIR" INDICATES FEW OR NO CLOUDS BELOW 12,000 FEET WITH NO
SIGNIFICANT WEATHER AND/OR OBSTRUCTIONS TO VISIBILITY.

TXZ118-119-232300-
DALLAS/FORT WORTH METROPLEX

CITY           SKY/WX    TMP DP  RH WIND       PRES   REMARKS
DFW AIRPORT    MOSUNNY   78  56  46 S7        30.06F
DALLAS LOVE    MOSUNNY   79  56  45 SE6       30.07S
FTW MEACHAM    SUNNY     81  58  45 SE10      30.05S
DAL-EXECUTIVE  MOSUNNY   78  55  44 SE5       30.07S
FTW-ALLIANCE   PTSUNNY   79  57  46 SE9       30.05F
FTW-NAS-JRB    PTSUNNY   83  55  38 SE7       30.09F
FTW-SPINKS     MOSUNNY   81  57  44 SE8       30.07F
ARLINGTON      PTSUNNY   80  54  40 E8        30.06F
GRAND PRAIRIE  SUNNY     77  57  50 MISG      30.08F
ADDISON        MOSUNNY   77  55  47 S7        30.08S
MESQUITE       SUNNY     77  55  47 SE3       30.08S
LANCASTER      SUNNY     77  53  43 CALM      30.08S
$$

TXZ091>094-102>105-117-120-121-131>134-232300-
NORTH CENTRAL TEXAS

CITY           SKY/WX    TMP DP  RH WIND       PRES   REMARKS
SHRMAN/DENISON SUNNY     76  60  56 SE6       30.08F
GAINESVILLE    PTSUNNY   76  58  53 SE10      30.08S
BOWIE          MOSUNNY   80  58  47 S7        30.05S
BRIDGEPORT     MOSUNNY   80  60  50 S5        30.07S
DECATUR        MOSUNNY   79  56  44 S9        30.06S
DENTON         SUNNY     78  57  48 SE12      30.06S
MCKINNEY       SUNNY     75  55  49 S9        30.07F
GREENVILLE     SUNNY     75  52  43 CALM      30.09S
ROCKWALL       SUNNY     76  57  50 SE6       30.07F
TERRELL        SUNNY     77  56  48 CALM      30.08F
WAXAHACHIE     MOSUNNY   78  58  48 CALM      30.09R
CLEBURNE       SUNNY     81  57  44 S5        30.08S
GRANBURY       CLOUDY    82  58  45 S6        30.06S
$$

TXZ083>090-098>101-113>116-127>130-139>142-154-155-232300-
WESTERN NORTH TEXAS

CITY           SKY/WX    TMP DP  RH WIND       PRES   REMARKS
WICHITA FALLS  MOSUNNY   81  59  47 S8        30.02F
WF-KICKAPOO    SUNNY     82  56  40 SW9       30.04F
VERNON         SUNNY     82  57  42 SW7       30.04S
ABILENE        MOSUNNY   82  58  43 SW9       30.06F
ABILENE-DYESS  MOSUNNY   82  61  47 SW14      30.04F
BRECKENRIDGE   SUNNY     82  56  41 S5        30.04S HAZE
MINERAL WELLS  SUNNY     80  58  46 S8        30.04S
STEPHENVILLE   MOSUNNY   80  58  47 SE5       30.09F
COMANCHE       MOSUNNY   81  61  49 SE7       30.07F
COLEMAN        PTSUNNY   80  60  50 SE5       30.06F
BRADY          MOSUNNY   81  57  44 S5        30.07F
$$

TXZ143>147-156>162-174-175-232300-
CENTRAL TEXAS

CITY           SKY/WX    TMP DP  RH WIND       PRES   REMARKS
WACO           MOSUNNY   80  56  43 E7        30.06F
WACO-TSTC      SUNNY     81  55  41 SE5       30.06F
WACO-MCGREGOR  SUNNY     82  55  39 SE3       30.07F
CORSICANA      SUNNY     77  55  46 SE6       30.09F
MEXIA          SUNNY     77  57  49 NE3       30.07F
HEARNE         SUNNY     78  57  48 N5        30.08S
CAMERON        SUNNY     80  58  46 E3        30.07S HAZE
TEMPLE         SUNNY     81  55  41 SE3       30.06F
KILLEEN        SUNNY     79  60  51 SE3       30.07S
KILLEEN-SKYLRK SUNNY     81  59  47 E7        30.05F
FORT HOOD      MOSUNNY   82  60  47 CALM      30.06F
GATESVILLE     SUNNY     81  61  50 CALM      30.08F
HAMILTON       PTSUNNY   80  58  47 S6        30.08S
LAMPASAS       SUNNY     81  63  55 SE3       30.07S
$$

TXZ095>097-106>112-122>126-135>138-148>153-164>167-232300-
EAST TEXAS

CITY           SKY/WX    TMP DP  RH WIND       PRES   REMARKS
PARIS          CLOUDY    70  50  49 E6        30.10F
SULPHUR SPRNGS SUNNY     76  53  45 S3        30.11S
MOUNT PLEASANT SUNNY     73  51  45 CALM      30.11F
MINEOLA        SUNNY     75  54  46 CALM      30.09F
TYLER          SUNNY     75  54  47 E3        30.09F
LONGVIEW       SUNNY     73  51  46 VRB3      30.09F
MARSHALL       SUNNY     73  48  40 CALM      30.12F
ATHENS         MOSUNNY   75  54  46 CALM      30.07F
PALESTINE      SUNNY     75  55  50 NE5       30.09F
JACKSONVILLE   SUNNY     73  53  48 E3        30.11F
HENDERSON      SUNNY     73  52  47 NE5       30.11S
NACOGDOCHES    MOSUNNY   70  52  52 E6        30.11S
LUFKIN         MOSUNNY   75  52  44 N8        30.09F
$$

SUPPLEMENTAL OBSERVATIONS (CENTRAL)

CITY           SKY/WX    TMP DP  RH WIND       PRES   REMARKS
$$

SUPPLEMENTAL OBSERVATIONS (WEST)

CITY           SKY/WX    TMP DP  RH WIND       PRES   REMARKS
$$

SUPPLEMENTAL OBSERVATIONS (EAST)

CITY           SKY/WX    TMP DP  RH WIND       PRES   REMARKS
$$

SUPPLEMENTAL OBSERVATIONS ARE A COLLECTION OF AUTOMATED INSTRUMENTS
THAT ARE MAINTAINED BY A VARIETY OF FEDERAL AND STATE AGENCIES.
CERTAIN ELEMENTS...SUCH AS HUMIDITY VALUES AND SUSTAINED WIND
SPEEDS...MAY BE APPROXIMATED.





U.S. Dept. of Commerce
NOAA National Weather Service
1325 East West Highway
Silver Spring, MD 20910
E-mail: w-nws.webmaster@noaa.gov
Page last modified: May 16, 2007
NATIONAL WEATHER SERVICE: for Safety, for Work, for Fun - FOR LIFE